• In Russia
  • List of Countries
  • For 7 days
  • Water Temperature
  • Satellite Maps
  • Weather Map
  • Weather Widgets
  • user-avatar
    Login

    Hourly Weather Stepanakert

    Today, 5 December, Monday

    Time Temperature Precipitation Wind Pressure Humidity
    00:00 +2°C° 0 mm 1 mps 696 mmHg 72%
    01:00 +2°C° 0 mm 1 mps 696 mmHg 73%
    02:00 +2°C° 0 mm 1 mps 696 mmHg 73%
    03:00 +2°C° 0 mm 1 mps 696 mmHg 73%
    04:00 +2°C° 0 mm 1 mps 696 mmHg 73%
    05:00 +1°C° 0 mm 1 mps 696 mmHg 73%
    06:00 +1°C° 0 mm 1 mps 696 mmHg 73%
    07:00 +2°C° 0 mm 1 mps 697 mmHg 66%
    08:00 +4°C° 0 mm 1 mps 697 mmHg 60%
    09:00 +5°C° 0 mm 1 mps 697 mmHg 53%
    10:00 +5°C° 0 mm 2 mps 697 mmHg 50%
    11:00 +5°C° 0 mm 2 mps 697 mmHg 47%
    12:00 +6°C° 0 mm 2 mps 696 mmHg 44%
    13:00 +6°C° 0 mm 2 mps 696 mmHg 45%
    14:00 +5°C° 0 mm 2 mps 695 mmHg 47%
    15:00 +5°C° 0 mm 2 mps 695 mmHg 48%
    16:00 +5°C° 0 mm 1 mps 695 mmHg 53%
    17:00 +3°C° 0 mm 1 mps 694 mmHg 58%
    18:00 +2°C° 0 mm 1 mps 694 mmHg 63%
    19:00 +2°C° 0 mm 1 mps 694 mmHg 64%
    20:00 +2°C° 0 mm 1 mps 694 mmHg 65%
    21:00 +2°C° 0 mm 1 mps 694 mmHg 65%
    22:00 -1°C° 0.1 mm 2 mps 694 mmHg 68%
    23:00 -1°C° 0.1 mm 2 mps 694 mmHg 70%

    Tomorrow, 6 December, Tuesday

    Time Temperature Precipitation Wind Pressure Humidity
    00:00 -1°C° 0.1 mm 2 mps 694 mmHg 73%
    01:00 -1°C° 0.4 mm 2 mps 694 mmHg 76%
    02:00 -1°C° 0.4 mm 2 mps 695 mmHg 78%
    03:00 -1°C° 0.4 mm 2 mps 695 mmHg 81%
    04:00 -1°C° 0.7 mm 2 mps 695 mmHg 83%
    05:00 -2°C° 0.7 mm 2 mps 695 mmHg 84%
    06:00 -2°C° 0.7 mm 2 mps 696 mmHg 86%
    07:00 -2°C° 0.5 mm 2 mps 696 mmHg 83%
    08:00 -2°C° 0.5 mm 2 mps 697 mmHg 80%
    09:00 -1°C° 0.5 mm 2 mps 697 mmHg 77%
    10:00 -1°C° 0.3 mm 2 mps 698 mmHg 74%
    11:00 -1°C° 0.3 mm 2 mps 698 mmHg 71%
    12:00 -1°C° 0.3 mm 2 mps 698 mmHg 67%
    13:00 -1°C° 0.2 mm 2 mps 698 mmHg 69%
    14:00 -1°C° 0.2 mm 2 mps 698 mmHg 70%
    15:00 -1°C° 0.2 mm 2 mps 698 mmHg 71%
    16:00 0°C° 0 mm 1 mps 698 mmHg 75%
    17:00 -2°C° 0 mm 1 mps 698 mmHg 78%
    18:00 -3°C° 0 mm 1 mps 698 mmHg 82%
    19:00 -4°C° 0 mm 1 mps 698 mmHg 81%
    20:00 -4°C° 0 mm 1 mps 698 mmHg 81%
    21:00 -6°C° 0 mm 2 mps 698 mmHg 80%
    22:00 -6°C° 0 mm 2 mps 698 mmHg 79%
    23:00 -6°C° 0 mm 2 mps 698 mmHg 78%

    Day after tomorrow, 7 December, Wednesday

    Time Temperature Precipitation Wind Pressure Humidity
    00:00 -6°C° 0 mm 2 mps 698 mmHg 78%
    01:00 -6°C° 0 mm 2 mps 697 mmHg 77%
    02:00 -6°C° 0 mm 2 mps 697 mmHg 75%
    03:00 -6°C° 0 mm 2 mps 697 mmHg 74%
    04:00 -6°C° 0 mm 2 mps 697 mmHg 73%
    05:00 -6°C° 0 mm 2 mps 696 mmHg 72%
    06:00 -6°C° 0 mm 2 mps 696 mmHg 72%
    07:00 -4°C° 0 mm 2 mps 696 mmHg 69%
    08:00 -3°C° 0 mm 2 mps 696 mmHg 67%
    09:00 -1°C° 0 mm 2 mps 697 mmHg 65%
    10:00 +1°C° 0 mm 2 mps 696 mmHg 62%
    11:00 +3°C° 0 mm 2 mps 696 mmHg 59%
    12:00 +4°C° 0 mm 2 mps 695 mmHg 56%
    13:00 +4°C° 0 mm 2 mps 695 mmHg 59%
    14:00 +4°C° 0 mm 2 mps 694 mmHg 63%
    15:00 +3°C° 0 mm 2 mps 694 mmHg 66%
    16:00 +2°C° 0 mm 2 mps 694 mmHg 69%
    17:00 -1°C° 0 mm 2 mps 694 mmHg 72%
    18:00 -3°C° 0 mm 2 mps 694 mmHg 75%
    19:00 -3°C° 0 mm 2 mps 694 mmHg 74%
    20:00 -3°C° 0 mm 2 mps 694 mmHg 72%
    21:00 -5°C° 0 mm 3 mps 694 mmHg 71%
    22:00 -5°C° 0 mm 3 mps 694 mmHg 71%
    23:00 -5°C° 0 mm 3 mps 694 mmHg 70%

    8 December, Thursday

    Time Temperature Precipitation Wind Pressure Humidity
    00:00 -4°C° 0 mm 2 mps 694 mmHg 69%
    01:00 -4°C° 0 mm 2 mps 694 mmHg 69%
    02:00 -4°C° 0 mm 2 mps 695 mmHg 70%
    03:00 -5°C° 0 mm 2 mps 695 mmHg 70%
    04:00 -4°C° 0 mm 2 mps 696 mmHg 70%
    05:00 -2°C° 0 mm 1 mps 696 mmHg 70%
    06:00 -2°C° 0 mm 1 mps 697 mmHg 71%
    07:00 -1°C° 0 mm 1 mps 698 mmHg 69%
    08:00 -3°C° 0 mm 2 mps 699 mmHg 67%
    09:00 -2°C° 0 mm 2 mps 700 mmHg 65%
    10:00 -1°C° 0 mm 2 mps 700 mmHg 64%
    11:00 -1°C° 0 mm 2 mps 699 mmHg 63%
    12:00 -1°C° 0 mm 2 mps 699 mmHg 61%
    13:00 -1°C° 0 mm 2 mps 699 mmHg 63%
    14:00 -1°C° 0 mm 2 mps 699 mmHg 64%
    15:00 -1°C° 0 mm 2 mps 699 mmHg 65%
    16:00 -1°C° 0 mm 1 mps 699 mmHg 70%
    17:00 -2°C° 0 mm 1 mps 699 mmHg 74%
    18:00 -4°C° 0 mm 1 mps 699 mmHg 79%
    19:00 -4°C° 0 mm 1 mps 699 mmHg 79%
    20:00 -4°C° 0 mm 1 mps 699 mmHg 80%
    21:00 -6°C° 0 mm 1 mps 699 mmHg 80%
    22:00 -6°C° 0 mm 1 mps 699 mmHg 82%
    23:00 -7°C° 0 mm 1 mps 699 mmHg 83%

    9 December, Friday

    Time Temperature Precipitation Wind Pressure Humidity
    00:00 -7°C° 0 mm 1 mps 699 mmHg 85%
    01:00 -7°C° 0 mm 1 mps 699 mmHg 85%
    02:00 -7°C° 0 mm 1 mps 699 mmHg 85%
    03:00 -8°C° 0 mm 1 mps 699 mmHg 85%
    04:00 -8°C° 0 mm 1 mps 699 mmHg 84%
    05:00 -8°C° 0 mm 1 mps 699 mmHg 82%
    06:00 -8°C° 0 mm 1 mps 699 mmHg 81%
    07:00 -6°C° 0 mm 1 mps 699 mmHg 75%
    08:00 -3°C° 0 mm 1 mps 700 mmHg 70%
    09:00 -2°C° 0 mm 1 mps 700 mmHg 64%
    10:00 0°C° 0 mm 1 mps 700 mmHg 61%
    11:00 +1°C° 0 mm 1 mps 700 mmHg 57%
    12:00 +2°C° 0 mm 1 mps 699 mmHg 53%
    13:00 +2°C° 0 mm 1 mps 699 mmHg 56%
    14:00 +2°C° 0 mm 1 mps 699 mmHg 59%
    15:00 +2°C° 0 mm 1 mps 698 mmHg 62%
    16:00 0°C° 0 mm 1 mps 698 mmHg 68%
    17:00 -2°C° 0 mm 1 mps 697 mmHg 73%
    18:00 -4°C° 0 mm 1 mps 697 mmHg 79%
    19:00 -4°C° 0 mm 1 mps 697 mmHg 78%
    20:00 -4°C° 0 mm 1 mps 697 mmHg 77%
    21:00 -4°C° 0 mm 1 mps 697 mmHg 76%
    22:00 -4°C° 0 mm 1 mps 697 mmHg 75%
    23:00 -4°C° 0 mm 1 mps 696 mmHg 74%

    10 December, Saturday

    Time Temperature Precipitation Wind Pressure Humidity
    00:00 -4°C° 0 mm 1 mps 696 mmHg 72%
    01:00 -4°C° 0 mm 1 mps 696 mmHg 71%
    02:00 -4°C° 0 mm 1 mps 695 mmHg 71%
    03:00 -6°C° 0 mm 2 mps 695 mmHg 70%
    04:00 -6°C° 0 mm 2 mps 695 mmHg 69%
    05:00 -5°C° 0 mm 2 mps 694 mmHg 68%
    06:00 -5°C° 0 mm 2 mps 694 mmHg 67%
    07:00 -3°C° 0 mm 2 mps 694 mmHg 64%
    08:00 0°C° 0 mm 1 mps 694 mmHg 61%
    09:00 +2°C° 0 mm 1 mps 694 mmHg 58%
    10:00 +4°C° 0 mm 1 mps 694 mmHg 55%
    11:00 +5°C° 0 mm 1 mps 693 mmHg 52%
    12:00 +7°C° 0 mm 1 mps 692 mmHg 49%
    13:00 +6°C° 0 mm 1 mps 692 mmHg 53%
    14:00 +6°C° 0 mm 1 mps 691 mmHg 56%
    15:00 +5°C° 0 mm 1 mps 691 mmHg 60%
    16:00 +4°C° 0 mm 1 mps 690 mmHg 64%
    17:00 +2°C° 0 mm 1 mps 690 mmHg 67%
    18:00 -2°C° 0 mm 2 mps 690 mmHg 71%
    19:00 -2°C° 0 mm 2 mps 690 mmHg 71%
    20:00 -2°C° 0 mm 2 mps 690 mmHg 71%
    21:00 -2°C° 0 mm 2 mps 690 mmHg 72%
    22:00 -2°C° 0 mm 2 mps 690 mmHg 72%
    23:00 -2°C° 0 mm 2 mps 690 mmHg 72%
    Show more